Location: Cherryland
(37.6794°N, 122.1033°W)
Time: 23:08:14
(UTC+00:00)

SL-08 ROCKET BODY - Pass Details

Date: 14 December 2025
Orbit: 896 x 961 km, 82.9° (Epoch: 14 January)

Event Time Altitude Azimuth Distance (km) Brightness Sun altitude
Rises 14:06:47 0° 200° (SSW) 3,505 7.4 -13.3°
Reaches altitude 10° 14:09:18 10° 206° (SSW) 2,564 6.6 -12.8°
Maximum altitude 14:14:55 49° 280° (W) 1,146 4.5 -11.8°
Drops below altitude 10° 14:20:34 10° 355° (N) 2,579 6.5 -10.7°
Sets 14:23:08 0° 1° (N) 3,527 7.2 -10.3°
